Regional Weather Roundup
Issued by NWS Jackson, KY

Home | Current Version | Previous Version | Text Only | Print | Product List | Glossary Off
Versions: 1 2 3 4 5 6 7 8 9 10 11 12 13 14 15 16 17 18 19 20 21 22 23 24 25 26 27 28 29 30 31 32 33 34 35 36 37 38 39 40 41 42 43 44 45 46 47 48 49 50

000
ASUS43 KJKL 300010
RWRJKL

EAST KENTUCKY HOURLY WEATHER ROUNDUP
NATIONAL WEATHER SERVICE JACKSON KY
800 PM EDT FRI AUG 29 2014

NOTE: "FAIR" INDICATES FEW OR NO CLOUDS BELOW 12,000 FEET WITH
NO SIGNIFICANT WEATHER AND/OR OBSTRUCTIONS TO VISIBILITY.

* THESE REPORTS ARE NOT UNDER NWS QUALITY CONTROL AND MAY NOT
  REPORT WEATHER SUCH AS PRECIPITATION AND FOG.

KYZ079-080-083-085-087-088-110-112-115-119-120-300100
...EASTERN KENTUCKY...

CITY           SKY/WX    TMP DP  RH WIND       PRES   REMARKS
JACKSON        PTCLDY    78  71  79 CALM      30.07S
6HR MIN TEMP:  78; 6HR MAX TEMP:  89;

LONDON         CLEAR     84  72  67 CALM      30.06R
6HR MIN TEMP:  81; 6HR MAX TEMP:  90; 6HR PCP:  0.05;

SOMERSET*      CLEAR     81  64  57 E3        30.05R
MONTICELLO*    CLEAR     78  72  82 CALM      30.05S
6HR MIN TEMP:  78; 6HR MAX TEMP:  91;

WILLIAMSBURG*  CLEAR     82  68  61 CALM      30.06
MIDDLESBORO*   CLEAR     81  71  71 CALM      30.07R
6HR MIN TEMP:  81; 6HR MAX TEMP:  91;

HARLAN APT*    PTCLDY    79  68  69 MISG      30.08R
HAZARD APT*    CLEAR     79  70  73 CALM      30.07S
BLACK MTN*       N/A     70  66  88 SW2         N/A
PIKEVILLE APT* CLEAR     73  72  94 CALM      30.08F
BIG SANDY*     MOCLDY    75  73  91 CALM      30.06F
MOREHEAD APT*  PTCLDY    79  70  73 S6        30.07S
$$

KYZ035-036-041-042-044-050-067-078-099-300100
...CENTRAL KENTUCKY...

CITY           SKY/WX    TMP DP  RH WIND       PRES   REMARKS
MT STERLING*   PTCLDY    79  72  78 S3        30.05F
FLEMING/MASON* MOCLDY    81  73  78 CALM      30.05R
DANVILLE*      CLEAR     81  64  57 CALM      30.05R
RICHMOND*      CLEAR     82  64  54 CALM      30.03S
LEXINGTON      PTCLDY    84  67  56 S8        30.03R
6HR MIN TEMP:  84; 6HR MAX TEMP:  92;

FRANKFORT      CLEAR     83  64  52 SW6       30.00S
6HR MIN TEMP:  83; 6HR MAX TEMP:  90;

$$

KYZ091>093-OHZ055-061-077-WVZ005-015-034-035-042-300100
...SOUTHERN OHIO/WEST VIRGINIA...

CITY           SKY/WX    TMP DP  RH WIND       PRES   REMARKS
COVINGTON      MOCLDY    83  69  62 E7        30.01R
COLUMBUS       MOCLDY    81  62  52 E7        30.04S
DAYTON         MOCLDY    81  64  56 SE10      30.03S
WILMINGTON     MOCLDY    79  66  64 E5        30.03S
HUNTINGTON     CLEAR     81  69  67 CALM      30.04R
CHARLESTON     PTCLDY    81  72  74 CALM      30.05R
PINEVILLE*     PTCLDY    75  73  92 MISG      30.16R
BECKLEY        CLEAR     74  65  73 SE7       30.17R
BLUEFIELD      CLEAR     75  65  70 VRB7      30.20R
$$

VAZ002-007-008-TNZ017-027-036-066-071-300100
...SOUTHWEST VIRGINIA/EAST TENNESSEE...

CITY           SKY/WX    TMP DP  RH WIND       PRES   REMARKS
WISE*          MOCLDY    79  68  69 N3        30.17R
JONESVILLE*      N/A     82  72  69 CALM      30.09R
ABINGDON*      CLOUDY    74  71  89 NE6       30.15R
BRISTOL        MOCLDY    75  69  81 CALM      30.10R
KNOXVILLE      PTCLDY    84  63  49 SW6       30.03S
OAK RIDGE      CLEAR     86  65  49 CALM      30.06R
CROSSVILLE     PTCLDY    77  62  59 CALM      30.10S
NASHVILLE      PTCLDY    87  60  40 S9        30.00R
$$

...KEY TO REMARKS...
VSB - VISIBILITY IN MILES
WCI - WIND CHILL INDEX
HX  - HEAT INDEX

$$


USA.gov is the U.S. government's official web portal to all federal, state and local government web resources and services.